Flag Weather past 2 weeks in MD of Lunenburg, Nova Scotia, Canada

Now
30 °F

Chilly.


Feels Like: 23 °F
Forecast: N/A
Wind: 7 mph from North

Location: McNabs Island - AUT

Current Time: Nov 28, 2014 at 7:01:12 PM

Latest Report: Nov 28, 2014 at 6:00 PM


Visibility: N/A

Pressure: 29.93 "Hg

Humidity: 80%

Dew point: 25 °F

Location of MD of LunenburgLocation

Historic Weather in MD of Lunenburg — Graph

°F

MD of Lunenburg temperature yesterday

Maximum temperature yesterday: 51 °F (at 10:00 AM)
Minimum temperature yesterday: 31 °F (at 7:00 PM)
Average temperature yesterday: 38 °F

Past Weeks' High & Low Weather Summary

 TemperatureHumidityPressure
High60 °F (Nov 18, 4:00 AM)100% (Nov 14, 4:00 PM)30.35 "Hg (Nov 14, 4:00 PM)
Low24 °F (Nov 22, 7:00 AM)51% (Nov 19, 3:00 PM)29.26 "Hg (Nov 27, 10:00 AM)
Average40 °F81%29.91 "Hg
* Reported Nov 13 6:00 PM — Nov 28 6:00 PM, MD of Lunenburg, Weather by CustomWeather, © 2014

Note: Actual official high and low records may vary slightly from our data, if they occured in-between our weather recording intervals... More about our weather records

Advertising

MD of Lunenburg weather history for previous 24 hours

 ConditionsComfort  
Time TempWeatherWind HumidityBarometerVisibility
6:00 PM
Nov 28
30 °FChilly.7 mph80%29.93 "HgN/A
5:00 PM30 °FChilly.8 mph81%29.92 "HgN/A
4:00 PM31 °FChilly.6 mph80%29.91 "HgN/A
3:00 PM31 °FChilly.7 mph77%29.90 "HgN/A
2:00 PM33 °FChilly.5 mph69%29.89 "HgN/A
1:00 PM31 °FChilly.5 mph75%29.90 "HgN/A
12:00 PM32 °FChilly.6 mph72%29.92 "HgN/A
11:00 AM32 °FChilly.5 mph72%29.93 "HgN/A
10:00 AM30 °FChilly.6 mph73%29.96 "HgN/A
9:00 AM30 °FChilly.5 mph77%29.95 "HgN/A
8:00 AM29 °FChilly.7 mph78%29.96 "HgN/A
7:00 AM29 °FChilly.6 mph78%29.96 "HgN/A
6:00 AM31 °FChilly.7 mph73%29.94 "HgN/A
5:00 AM30 °FChilly.5 mph78%29.95 "HgN/A
4:00 AM30 °FChilly.5 mph79%29.94 "HgN/A
3:00 AM30 °FChilly.5 mph78%29.96 "HgN/A
2:00 AM30 °FChilly.7 mph81%29.92 "HgN/A
1:00 AM31 °FChilly.6 mph80%29.94 "HgN/A
12:00 AM31 °FChilly.7 mph79%29.94 "HgN/A
11:00 PM
Nov 27
33 °FChilly.8 mph74%29.92 "HgN/A
10:00 PM31 °FChilly.10 mph77%29.91 "HgN/A
9:00 PM32 °FChilly.9 mph79%29.89 "HgN/A
8:00 PM31 °FChilly.12 mph92%29.86 "HgN/A
7:00 PM31 °FChilly.9 mph96%29.84 "HgN/A
Weather by CustomWeather, © 2014

See weather overviewHow to use our weather pages